Skip Page Navigation
NASA JPL Caltech
NASA Logo - Jet Propulsion Laboratory + View the NASA Portal
+ Center for Near-Earth Object Studies
JPL Home Earth Solar System Stars & Galaxies Technology
JPL Solar System Dynamics
BODIES ORBITS EPHEMERIDES TOOLS PHYSICAL DATA DISCOVERY FAQ SITE MAP
IMPORTANT: The SSD Announcement email list is now available. Major changes are coming in the near future, including possible hostname and/or URL changes. To be notified of such changes, subscribe to this email list.

Please visit this page for more details.


JPL Small-Body Database Browser
Search: [ help ]  
281 Lucretia
Classification: Main-belt Asteroid          SPK-ID: 2000281
Ephemeris | Orbit Diagram | Orbital Elements | Mission Design | Physical Parameters | Discovery Circumstances | Close-Approach Data ]

[ show orbit diagram ]
Orbital Elements at Epoch 2458600.5 (2019-Apr-27.0) TDB
Reference: JPL 33 (heliocentric ecliptic J2000)
 Element Value Uncertainty (1-sigma)   Units 
e .1326752701693698 3.4494e-08  
a 2.187358802943897 5.2027e-09 au
q 1.897150382805966 7.5315e-08 au
i 5.303962169247142 4.3811e-06 deg
node 31.40887174205444 4.208e-05 deg
peri 16.58788825412199 4.5789e-05 deg
M 106.6782795285917 1.8277e-05 deg
tp 2458250.351740878352
(2018-May-11.85174088)
5.9606e-05 TDB
period 1181.621730691756
3.24
4.2158e-06
1.154e-08
d
yr
n .3046660286022713 1.087e-09 deg/d
Q 2.477567223081828 5.893e-09 au
  Orbit Determination Parameters
   # obs. used (total)      3117  
   data-arc span      47140 days (129.06 yr)  
   first obs. used      1890-04-16  
   last obs. used      2019-05-10  
   planetary ephem.      DE431  
   SB-pert. ephem.      SB431-N16  
   condition code      0  
   norm. resid. RMS      .39319  
   source      ORB  
   producer      Otto Matic  
   solution date      2019-May-29 19:05:34  

Additional Information
 Earth MOID = .906903 au 
 Jupiter MOID = 2.87671 au 
 T_jup = 3.659 
[ show covariance matrix ]

Ephemeris | Orbit Diagram | Orbital Elements | Mission Design | Physical Parameters | Discovery Circumstances | Close-Approach Data ]

Physical Parameter Table
Parameter Symbol Value Units Sigma Reference Notes
absolute magnitude H 12.02   n/a IRAS-A-FPA-3-RDR-IMPS-V6.0 IRAS observations used: 6
magnitude slope G 0.28   n/a PDS3 (MPC 17258) Fit
diameter diameter 11.036 km 0.145 urn:nasa:pds:neowise_diameters_albedos::2.0[mainbelt] (http://adsabs.harvard.edu/abs/2014ApJ...791..121M)  
rotation period rot_per 4.348 h n/a LCDB (Rev. 2019-January); Warner et al., 2009 Published Reference List:
[Taylor, R.C.; Gehrels, T.; Capen, R.C. (1976) Astron. J. 81, 778-786.]
[Durech, J. (2006) IAU 2006, poster paper.]
[Hanus, J.; Durech, J.; Broz, M.; Warner, B.D.; et al. (2011) Astron. Astrophys. 530, A134.]
[Kryszczynska, A.; Colas, F.; Polinska, M.; Hirsch, R.; et al. (2012) Astron. Astrophys. 546, A72.]
[Hanus, J.; Durech, J.; Broz, M.; Marciniak, A.; et al. (2013) Astron. Astrophys. 551, A67.]
geometric albedo albedo 0.226   0.044 urn:nasa:pds:neowise_diameters_albedos::2.0[mainbelt] (http://adsabs.harvard.edu/abs/2014ApJ...791..121M)  
B-V BV 0.918   0.023 EAR-A-5-DDR-UBV-MEAN-VALUES-V1.2 #obs=5; phase (min.=6.59, mean=14.10, max.=21.70) deg.
U-B UB 0.530   0.045 EAR-A-5-DDR-UBV-MEAN-VALUES-V1.2 #obs=5; phase (min.=6.59, mean=12.63, max.=21.03) deg.
Tholen spectral type spec_T SU   n/a EAR-A-5-DDR-TAXONOMY-V4.0 used 2 color indices; used ground-based radiometric albedo
SMASSII spectral type spec_B S   n/a EAR-A-5-DDR-TAXONOMY-V4.0 based on a high-resolution spectrum by Xu et al. (1995) or Bus and Binzel (2002)

281 Lucretia          Discovered 1888-Oct-31 by Palisa, J. at Vienna
Reference: DISCOVERY.DBLast Updated: 2003-08-29

[ show close-approach data ]
Alternate Designations
 1948 EK = 1984 JX = A906 FD 
Ephemeris | Orbit Diagram | Orbital Elements | Mission Design | Physical Parameters | Discovery Circumstances | Close-Approach Data ]
ABOUT SSD CREDITS/AWARDS PRIVACY/COPYRIGHT GLOSSARY LINKS
FirstGov 2019-Dec-16 13:33 UT
(server date/time)  
NASA Home Page
Site Manager:   Ryan S. Park
Webmaster  Alan B. Chamberlin